Location: Cortos
(40.7190°N, 4.5893°W)
Time: 19:55:38
(UTC+00:00)

Cosmos 2322 - Pass Details

Date: 05 July 2020
Orbit: 841 x 854 km, 71.0° (Epoch: 05 August)

Event Time Altitude Azimuth Distance (km) Brightness Sun altitude
Rises 21:58:31 0° 215° (SW) 3,408 6.7 -18.3°
Reaches altitude 10° 22:01:00 10° 220° (SW) 2,477 6.0 -18.5°
Maximum altitude 22:06:35 54° 297° (WNW) 1,026 4.4 -19.1°
Drops below altitude 10° 22:12:11 10° 15° (NNE) 2,491 6.7 -19.7°
Sets 22:14:43 0° 20° (NNE) 3,430 7.4 -19.9°
